Tracking 28520 objects as of 29-Feb-2024
HD Live streaming from Space Station
objects crossing your sky now

STARLINK-4742

Track STARLINK-4742 now!
10-day predictions
STARLINK-4742 is classified as:


NORAD ID: 53795
Int'l Code: 2022-111Y
Perigee: 545.9 km
Apogee: 547.9 km
Inclination: 53.2 °
Period: 95.4 minutes
Semi major axis: 6917 km
RCS: Unknown
Launch date: September 11, 2022
Source: United States (US)
Launch site: AIR FORCE EASTERN TEST RANGE (AFETR)
Your satellite tracking list
Your tracking list is empty




NASA's NSSDC Master Catalog

Two Line Element Set (TLE):
1 53795U 22111Y   24060.20543058  .00000609  00000-0  56315-4 0  9994
2 53795  53.2182 353.4810 0001453  93.0044 267.1114 15.08847241 81257
Source of the keplerian elements: AFSPC